Orbital Elements at Epoch 2459000.5 (2020-May-31.0) TDB
Reference: JPL 10 (heliocentric ecliptic J2000)
Element | Value | Uncertainty (1-sigma) | Units |
e | .198080565850213 | 6.6103e-08 | |
a | 2.610893411649162 | 1.7469e-08 | au |
q | 2.093726167295103 | 1.7246e-07 | au |
i | 3.234274436542605 | 7.5973e-06 | deg |
node | 265.4909255781137 | 0.00010727 | deg |
peri | 171.135103323152 | 0.00010958 | deg |
M | 123.8733411353024 | 1.7707e-05 | deg |
tp | 2458470.278308030016 (2018-Dec-17.77830803) | 7.5454e-05 | TDB |
period | 1540.927267802546 4.22 | 1.5465e-05 4.234e-08 | d yr |
n | .2336255626869277 | 2.3448e-09 | deg/d |
Q | 3.128060656003221 | 2.093e-08 | au |
|
| | Orbit Determination Parameters
Additional Information
|